San Jose, Costa Rica

8:33 AM CST on February 23, 2017 (GMT -0600)
Juan Santamaria International

Weather History for MROC - September, 2015

Change the Weather History Date:

Wednesday, September 23, 2015

  Actual Average Record
Temperature  
Mean Temperature 74 °F -  
Max Temperature 81 °F 78 °F 86 °F (2003)
Min Temperature 68 °F 64 °F 60 °F (1998)
Cooling Degree Days 10    
Growing Degree Days 24 (Base 50)    
Moisture  
Dew Point 66 °F    
Average Humidity 82    
Maximum Humidity 94    
Minimum Humidity 46    
Precipitation  
Precipitation 0.08 in 0.44 in - ()
Sea Level Pressure  
Sea Level Pressure 29.92 in    
Wind  
Wind Speed 3 mph ()    
Max Wind Speed 13 mph    
Max Gust Speed -    
Visibility 7.2 miles    
Events Fog , Rain    
Averages and records for this station are not official NWS values.
T = Trace of Precipitation, MM = Missing Value Source: Averaged Metar Reports

Daily Weather History Graph

Daily Weather History Graph

Search for Another Location

Airport or City:

Trip Planner

Search our weather history database for the weather conditions in past years. The results will help you decide how hot, cold, wet, or windy it might be!

Date:

Astronomy

Sep. 23, 2015 Rise Set
Actual Time 5:26 AM CST 5:32 PM CST
Civil Twilight 5:05 AM CST 5:53 PM CST
Nautical Twilight 4:40 AM CST 6:17 PM CST
Astronomical Twilight 4:16 AM CST 6:42 PM CST
Moon 1:49 PM CST 12:56 AM CST
Length of Visible Light 12h 48m
Length of Day
12h 06m
Waxing Gibbous, 75% of the Moon is Illuminated
Sep 23
Waxing Gibbous
Sep 27
Full
Oct 4
Last Quarter
Oct 12
New
Oct 20
First Quarter

Hourly Weather History & Observations

Time (CST) Temp. Heat Index Dew Point Humidity Pressure Visibility Wind Dir Wind Speed Gust Speed Precip Events Conditions
12:00 AM 70 °F - 65 °F 80% 29.79 in 12 mi Calm Calm - -   Scattered Clouds
12:00 AM 69.8 °F - 64.4 °F 83% 29.97 in 6.2 mi Calm Calm - N/A   Mostly Cloudy
1:00 AM 69.8 °F - 66.2 °F 88% 29.95 in 6.2 mi WNW 4.6 mph - N/A   Scattered Clouds
2:00 AM 69.8 °F - 66.2 °F 88% 29.93 in 6.2 mi WNW 3.5 mph - N/A   Scattered Clouds
3:00 AM 70 °F - 67 °F 85% 29.80 in 12 mi NNW 2.3 mph - -   Scattered Clouds
3:00 AM 69.8 °F - 66.2 °F 88% 29.93 in 6.2 mi NNW 2.3 mph - N/A   Scattered Clouds
4:00 AM 69.8 °F - 66.2 °F 88% 29.93 in 3.1 mi West 3.5 mph - N/A   Drizzle
5:00 AM 69.8 °F - 66.2 °F 88% 29.94 in 5.0 mi NNE 3.5 mph - N/A   Light Drizzle
6:00 AM 69 °F - 66 °F 87% 29.83 in 12 mi ESE 3.5 mph - -   Partly Cloudy
6:00 AM 68.0 °F - 66.2 °F 94% 29.95 in 6.2 mi ESE 3.5 mph - N/A   Mostly Cloudy
7:00 AM - - - N/A% 29.95 in 6.2 mi East 3.5 mph - N/A   Mostly Cloudy
8:00 AM 77.0 °F - 66.2 °F 69% 29.97 in 6.2 mi East 4.6 mph - N/A   Mostly Cloudy
9:00 AM 80 °F - 63 °F 46% 29.83 in 12 mi ESE 5.8 mph - -   Scattered Clouds
9:00 AM 80.6 °F 81.8 °F 62.6 °F 54% 29.98 in 6.2 mi ESE 5.8 mph - N/A   Mostly Cloudy
10:00 AM 77.0 °F - 68.0 °F 74% 29.99 in 6.2 mi SW 10.4 mph - N/A   Scattered Clouds
11:00 AM 78.8 °F - 68.0 °F 69% 29.98 in 6.2 mi SSW 10.4 mph - N/A Rain Light Rain
12:00 PM 73 °F - 69 °F 82% 29.83 in 6 mi WSW 12.7 mph - - Rain Light Rain
12:00 PM 73.4 °F - 68.0 °F 83% 29.96 in 6.2 mi WSW 12.7 mph - N/A Fog , Rain Light Rain
1:00 PM 73.4 °F - 68.0 °F 83% 29.94 in 6.2 mi West 9.2 mph - N/A Rain Light Rain
2:00 PM 73.4 °F - 68.0 °F 83% 29.92 in 6.2 mi West 4.6 mph - N/A Rain Light Rain
3:00 PM 75 °F - 66 °F 65% 29.76 in 12 mi NNW 2.3 mph - - Rain Light Rain
3:00 PM 75.2 °F - 66.2 °F 73% 29.90 in 6.2 mi Variable 2.3 mph - N/A   Mostly Cloudy
3:30 PM 71.6 °F - 66.2 °F 83% 29.92 in 5.0 mi West 3.5 mph - N/A Fog , Rain Rain
4:00 PM 71.6 °F - 68.0 °F 88% 29.92 in 5.0 mi West 5.8 mph - N/A Fog Patches of Fog
5:00 PM 69.8 °F - 66.2 °F 88% 29.94 in 4.3 mi WSW 4.6 mph - N/A Fog Light Drizzle
6:00 PM 70 °F - 67 °F 85% 29.84 in 12 mi SSW 1.2 mph - - Rain Light Rain
6:00 PM 69.8 °F - 66.2 °F 88% 29.96 in 6.2 mi Variable 2.3 mph - N/A Fog , Rain Light Rain
7:00 PM 69.8 °F - 66.2 °F 88% 29.98 in 6.2 mi Calm Calm - N/A   Light Drizzle
8:00 PM 69.8 °F - 66.2 °F 88% 30.00 in 6.2 mi East 2.3 mph - N/A   Light Drizzle
9:00 PM 69 °F - 66 °F 88% 29.84 in 12 mi East 3.5 mph - -   Partly Cloudy
9:00 PM 69.8 °F - 66.2 °F 88% 29.99 in 6.2 mi East 3.5 mph - N/A   Scattered Clouds
10:00 PM 69.8 °F - 66.2 °F 88% 29.98 in - ENE 2.3 mph - N/A   Clear
11:00 PM 68.0 °F - 64.4 °F 88% 29.97 in - NNE 3.5 mph - N/A   Clear